Location: Newark
(34.6283°N, 36.0776°E)
Time: 00:12:10
(UTC+00:00)

Explorer 7 - Visible Passes

Search period start: 22 September 2019 00:00
Search period end: 02 October 2019 00:00
Orbit: 485 x 680 km, 50.3° (Epoch: 21 September)

Date Brightness Start Highest point End Pass type
(mag) Time Alt. Az. Time Alt. Az. Time Alt. Az.
22 Sep 9.4 00:31:49 22° NNE 00:31:49 22° NNE 00:35:25 10° ENE visible
22 Sep 7.3 02:08:11 12° NW 02:12:51 85° NE 02:17:44 10° SE visible
23 Sep 9.1 00:37:35 28° NE 00:37:35 28° NE 00:41:12 10° E visible
23 Sep 7.3 02:13:59 16° WNW 02:17:50 59° SW 02:22:37 10° SE visible
24 Sep 8.8 00:43:35 33° ENE 00:43:35 33° ENE 00:46:47 10° ESE visible
24 Sep 7.9 02:19:59 20° WNW 02:22:44 35° SW 02:27:10 10° SSE visible
24 Sep 8.8 16:18:56 10° SE 16:20:10 12° SE 16:20:10 12° SE visible
24 Sep 9.5 17:56:10 10° SW 17:56:35 13° SW 17:56:35 13° SW visible
25 Sep 9.0 00:49:47 28° ESE 00:49:47 28° ESE 00:52:08 10° ESE visible
25 Sep 8.5 02:26:13 19° WSW 02:27:34 21° SW 02:31:14 10° S visible
25 Sep 8.1 16:22:04 10° S 16:25:10 21° SE 16:26:17 19° ESE visible
25 Sep 9.3 18:01:22 10° WSW 18:02:41 19° WSW 18:02:41 19° WSW visible
26 Sep 9.5 00:56:09 17° SE 00:56:09 17° SE 00:57:13 10° SE visible
26 Sep 9.1 02:32:35 12° SW 02:32:35 12° SW 02:34:15 10° SSW visible
26 Sep 7.4 16:26:15 10° SSW 16:30:00 38° SE 16:32:10 22° ENE visible
26 Sep 9.3 18:06:49 10° W 18:08:34 21° WNW 18:08:34 21° WNW visible
27 Sep 6.7 16:30:55 10° SW 16:34:54 69° SE 16:37:50 19° ENE visible
27 Sep 9.6 18:12:30 10° WNW 18:14:13 18° WNW 18:14:13 18° WNW visible
28 Sep 7.1 16:35:55 10° WSW 16:39:55 68° NW 16:43:17 16° NE visible
28 Sep 9.8 18:18:24 10° WNW 18:19:39 14° NW 18:19:39 14° NW visible
29 Sep 8.0 16:41:12 10° WSW 16:45:02 40° NW 16:48:32 13° NE visible
29 Sep 10.1 18:24:28 10° NW 18:24:53 11° NW 18:24:53 11° NW visible
30 Sep 8.7 16:46:44 10° W 16:50:14 27° NNW 16:53:39 11° NNE visible
01 Oct 9.2 16:52:30 10° WNW 16:55:31 19° NNW 16:58:38 10° NNE visible
